TimeMDT,TemperatureF,Dew PointF,Humidity,Sea Level PressureIn,VisibilityMPH,Wind Direction,Wind SpeedMPH,Gust SpeedMPH,PrecipitationIn,Events,Conditions,WindDirDegrees,DateUTC
12:56 AM,33.1,32.0,96,30.14,2.0,NNW,12.7,-,0.00,Snow,Light Snow,340,2012-10-03 06:56:00
1:05 AM,33.8,32.0,93,30.12,1.8,North,13.8,-,0.01,Snow,Light Snow,350,2012-10-03 07:05:00
1:37 AM,33.8,32.0,93,30.12,3.0,North,17.3,-,0.01,Snow,Light Snow,350,2012-10-03 07:37:00
1:56 AM,33.1,32.0,96,30.15,2.5,North,17.3,-,0.01,Snow,Light Snow,350,2012-10-03 07:56:00
2:16 AM,33.8,32.0,93,30.17,4.0,North,18.4,-,0.00,Snow,Light Snow,350,2012-10-03 08:16:00
2:33 AM,33.8,32.0,93,30.18,1.8,North,15.0,-,0.01,Snow,Light Snow,350,2012-10-03 08:33:00
2:48 AM,33.8,32.0,93,30.18,3.0,North,12.7,-,0.01,Snow,Light Snow,350,2012-10-03 08:48:00
2:56 AM,33.1,32.0,96,30.19,5.0,North,15.0,-,0.01,Snow,Light Snow,350,2012-10-03 08:56:00
3:56 AM,33.1,32.0,96,30.26,2.0,North,16.1,-,0.00,Snow,Light Snow,350,2012-10-03 09:56:00
4:12 AM,33.8,32.0,93,30.22,6.0,North,18.4,-,0.00,Snow,Light Snow,360,2012-10-03 10:12:00
4:56 AM,33.8,32.0,93,30.24,10.0,North,19.6,-,N/A,,Overcast,350,2012-10-03 10:56:00
5:56 AM,34.0,32.0,92,30.33,4.0,North,24.2,29.9,0.01,Snow,Light Snow,350,2012-10-03 11:56:00
6:56 AM,34.0,32.0,92,30.38,9.0,North,20.7,27.6,0.00,Snow,Light Snow,350,2012-10-03 12:56:00
7:56 AM,34.0,32.0,92,30.41,10.0,North,20.7,28.8,0.00,,Overcast,350,2012-10-03 13:56:00
8:33 AM,33.8,32.0,93,30.36,10.0,NNW,25.3,29.9,N/A,,Overcast,340,2012-10-03 14:33:00
8:56 AM,34.0,32.0,92,30.46,9.0,North,21.9,-,N/A,,Overcast,350,2012-10-03 14:56:00
9:21 AM,33.8,32.0,93,30.38,10.0,North,24.2,29.9,N/A,,Overcast,350,2012-10-03 15:21:00
9:38 AM,33.8,32.0,93,30.39,10.0,North,24.2,-,N/A,,Overcast,350,2012-10-03 15:38:00
9:50 AM,33.8,32.0,93,30.40,8.0,North,23.0,31.1,N/A,,Overcast,350,2012-10-03 15:50:00
9:56 AM,34.0,32.0,92,30.49,9.0,North,26.5,31.1,N/A,,Overcast,350,2012-10-03 15:56:00
10:14 AM,33.8,32.0,93,30.41,10.0,North,21.9,-,N/A,,Overcast,350,2012-10-03 16:14:00
10:24 AM,35.6,32.0,87,30.41,10.0,North,25.3,29.9,N/A,,Overcast,350,2012-10-03 16:24:00
10:49 AM,33.8,32.0,93,30.42,10.0,NNW,21.9,-,N/A,,Overcast,340,2012-10-03 16:49:00
10:56 AM,34.0,32.0,92,30.52,10.0,North,23.0,27.6,N/A,,Overcast,350,2012-10-03 16:56:00
11:32 AM,35.6,32.0,87,30.43,10.0,North,20.7,27.6,N/A,,Overcast,360,2012-10-03 17:32:00
11:40 AM,35.6,33.8,93,30.43,10.0,North,20.7,27.6,N/A,,Overcast,350,2012-10-03 17:40:00
11:56 AM,36.0,32.0,86,30.53,10.0,North,23.0,-,N/A,,Overcast,350,2012-10-03 17:56:00
12:37 PM,35.6,30.2,81,30.46,9.0,North,20.7,-,0.00,,Overcast,350,2012-10-03 18:37:00
12:56 PM,36.0,32.0,86,30.55,10.0,North,21.9,-,0.00,,Overcast,350,2012-10-03 18:56:00
1:56 PM,37.0,30.0,76,30.56,10.0,North,18.4,-,N/A,,Overcast,350,2012-10-03 19:56:00
2:56 PM,39.0,28.9,67,30.56,10.0,NNW,16.1,-,N/A,,Overcast,340,2012-10-03 20:56:00
3:56 PM,37.0,30.0,76,30.57,10.0,NNW,18.4,-,0.00,,Overcast,330,2012-10-03 21:56:00
4:56 PM,37.0,28.0,70,30.57,10.0,NNW,13.8,-,N/A,,Overcast,330,2012-10-03 22:56:00
5:56 PM,37.0,26.1,65,30.57,10.0,NNW,18.4,-,N/A,,Clear,340,2012-10-03 23:56:00
6:56 PM,32.0,27.0,82,30.58,10.0,NNW,10.4,-,N/A,,Clear,330,2012-10-04 00:56:00
7:56 PM,30.0,27.0,88,30.58,10.0,NNW,11.5,-,N/A,,Clear,330,2012-10-04 01:56:00
8:56 PM,28.0,25.0,88,30.59,10.0,NW,8.1,-,N/A,,Clear,320,2012-10-04 02:56:00
9:56 PM,26.1,24.1,92,30.59,10.0,WNW,5.8,-,N/A,,Clear,290,2012-10-04 03:56:00
10:56 PM,26.1,24.1,92,30.59,10.0,West,4.6,-,N/A,,Clear,270,2012-10-04 04:56:00
11:56 PM,26.1,23.0,88,30.57,10.0,WSW,3.5,-,N/A,,Clear,240,2012-10-04 05:56:00